User: anonymous   Login
Location: PSU-Greenbush Astrophysical Observatory
(37.5140°N, 94.9880°W)
Time: 14:46:22
(UTC-06:00)
Language:

Tiros 1 - Orbit

View from above orbital plane
View from above orbital plane
View from above satellite
View from above satellite

Ground track
Ground track

The orbit data is extracted from the following two-line orbital elements,

1    29U 60002B   20029.04286918 -.00000163  00000-0  67920-5 0  9990
2    29  48.3785 251.2526 0024211 350.8677   9.1791 14.74338613197944
Epoch (UTC): 29 January 2020 01:01:43
Eccentricity: 0.0024211
inclination: 48.3785°
perigee height: 630 km
apogee height: 664 km
right ascension of ascending node: 251.2526°
argument of perigee: 350.8677°
revolutions per day: 14.74338613
mean anomaly at epoch: 9.1791°
orbit number at epoch: 19794

The dashed part of the orbit path shows where the satellite is in the earth's shadow,  

DLR